Вернуться в каталог

DMSP 5D-2 F11 DEB

АктивенPO
NORAD 28326·DEBRIS·🇺🇸 United States

Запущен Nov 28, 1991 с Vandenberg Space Force Base

Loading…

Ближайшие Пролёты (ближайшие 24 часа)

TLE

СвежийSource: Space-Track

Эпоха: Sep 14, 2026, 06:04 UTC

1 28326U 91082AP  26257.25343834  .00004961  00000-0  13260-2 0  9999
2 28326  98.8176   7.6330 0044798  99.4502 261.1758 14.48198269155915

Отслеживайте DMSP 5D-2 F11 DEB в реальном времени с AllMySat

Download on the App Store